GW3210 Weather Reports


time (UTC)temp
F
wind
direction
speed
knots
gust
knots
rain 1hr
in
rain 24hr
in
rain mn
in
humidity
%
barometer
mb
20260503200117 86 315 4.3 7.0 0.00 0.00 0.00 31 1012.9
20260503195116 85 270 4.3 6.1 0.00 0.00 0.00 28 1012.9
20260503194117 85 293 1.7 2.6 0.00 0.00 0.00 30 1013.0
20260503193116 84 270 3.5 5.2 0.00 0.00 0.00 31 1013.1
20260503192116 84 248 2.6 4.3 0.00 0.00 0.00 33 1013.1
20260503191116 84 270 2.6 3.5 0.00 0.00 0.00 35 1013.2
20260503190117 81 270 2.6 4.3 0.00 0.00 0.00 36 1013.3
20260503185117 80 293 5.2 7.0 0.00 0.00 0.00 37 1013.4
20260503184116 79 315 1.7 3.5 0.00 0.00 0.00 36 1013.5
20260503183116 79 270 2.6 3.5 0.00 0.00 0.00 37 1013.5
20260503182116 78 270 2.6 5.2 0.00 0.00 0.00 39 1013.6
20260503181116 77 293 1.7 5.2 0.00 0.00 0.00 43 1013.7
20260503180116 75 315 2.6 5.2 0.00 0.00 0.00 44 1013.9
20260503175116 74 293 2.6 2.6 0.00 0.00 0.00 46 1013.9
20260503174116 74 293 3.5 7.0 0.00 0.00 0.00 49 1014.0
20260503173136 72 315 1.7 2.6 0.00 0.00 0.00 51 1014.0
20260503172116 71 293 1.7 2.6 0.00 0.00 0.00 53 1014.0
20260503171116 69 0 3.5 4.3 0.00 0.00 0.00 55 1014.0
20260503170116 68 315 1.7 3.5 0.00 0.00 0.00 57 1014.0
20260503160116 61 338 0.9 1.7 0.00 0.00 0.00 64 1014.2
20260503150115 59 293 0.9 1.7 0.00 0.00 0.00 71 1014.2
20260503140116 55 0.0 0.9 0.00 0.00 0.00 82 1014.1
20260503131136 54 0.0 0.0 0.00 0.00 0.00 75 1013.9
20260503130115 54 0.0 0.0 0.00 0.00 0.00 75 1013.8
20260503120115 55 158 0.9 0.9 0.00 0.00 0.00 74 1014.0
20260503110117 56 0.0 0.0 0.00 0.00 0.00 69 1014.2
20260503100138 57 158 0.9 1.7 0.00 0.00 0.00 67 1014.4
20260503090117 57 158 2.6 3.5 0.00 0.01 0.00 67 1014.4
20260503081117 58 0.0 0.0 0.00 0.01 0.00 66 1014.5
20260503080117 58 0.0 0.0 0.00 0.01 0.00 66 1014.5
20260503072137 59 270 0.9 0.9 0.00 0.01 0.00 64 1014.7
20260503071117 60 0.0 0.9 0.00 0.01 0.00 63 1014.6
20260503070117 60 270 0.9 1.7 0.00 0.01 0.00 63 1014.7
20260503060116 62 180 1.7 3.5 0.00 0.01 0.01 61 1014.5
20260503055115 62 338 1.7 3.5 0.00 0.01 0.01 61 1014.2
20260503054136 62 338 5.2 7.0 0.00 0.01 0.01 62 1014.2
20260503053115 62 0 1.7 3.5 0.00 0.01 0.01 62 1014.4
20260503052118 62 338 0.9 1.7 0.00 0.01 0.01 61 1014.6
20260503051158 62 0 1.7 2.6 0.00 0.01 0.01 61 1014.5
20260503050117 62 0.0 0.9 0.00 0.01 0.01 61 1014.7
20260503045117 62 0.0 0.0 0.00 0.01 0.01 61 1014.7
20260503044118 62 0.0 0.0 0.00 0.01 0.01 61 1014.9
20260503043117 62 135 0.9 1.7 0.00 0.01 0.01 61 1015.0
20260503042117 62 0.0 0.0 0.00 0.01 0.01 60 1014.8
20260503041218 62 135 0.9 1.7 0.00 0.01 0.01 60 1014.8
20260503040118 63 0.0 0.0 0.00 0.01 0.01 59 1014.8
20260503035138 63 135 0.9 1.7 0.00 0.01 0.01 59 1014.7
20260503034137 64 135 0.9 1.7 0.00 0.01 0.01 58 1014.9
20260503033117 64 158 2.6 4.3 0.00 0.01 0.01 57 1014.7
20260503032117 64 113 0.9 1.7 0.00 0.01 0.01 57 1014.7
20260503031117 65 158 1.7 2.6 0.00 0.01 0.01 55 1014.6
20260503030117 66 180 2.6 5.2 0.00 0.01 0.01 54 1014.6
20260503025117 67 135 2.6 3.5 0.00 0.01 0.01 53 1014.4
20260503024117 68 180 1.7 3.5 0.00 0.01 0.01 52 1014.3
20260503023138 68 158 3.5 7.0 0.00 0.01 0.01 51 1014.1
20260503022138 69 135 3.5 4.3 0.00 0.01 0.01 51 1014.2
20260503021117 69 135 2.6 3.5 0.00 0.01 0.01 50 1013.8
20260503020117 69 135 2.6 4.3 0.00 0.01 0.01 50 1013.6
20260503015117 70 135 3.5 4.3 0.00 0.01 0.01 49 1013.6
20260503014117 70 158 2.6 4.3 0.00 0.01 0.01 48 1013.4
20260503013117 72 180 2.6 4.3 0.00 0.01 0.01 48 1013.4
20260503012117 72 0.0 0.9 0.00 0.01 0.01 46 1013.3
20260503011116 72 315 0.9 1.7 0.00 0.01 0.01 46 1013.3
20260503010117 73 0 0.9 1.7 0.00 0.01 0.01 46 1013.3
20260503005117 73 315 1.7 2.6 0.00 0.01 0.01 45 1013.4
20260503004116 73 293 2.6 3.5 0.00 0.01 0.01 45 1013.4
20260503003117 73 293 2.6 3.5 0.00 0.01 0.01 45 1013.5
20260503002117 73 270 1.7 1.7 0.00 0.01 0.01 44 1013.5
20260503001117 74 293 2.6 4.3 0.00 0.01 0.01 44 1013.4
20260503000137 73 270 2.6 5.2 0.00 0.01 0.01 44 1013.5
20260502235117 74 293 4.3 6.1 0.00 0.01 0.01 44 1013.5
20260502234116 73 293 2.6 3.5 0.00 0.01 0.01 44 1013.6
20260502233117 73 225 2.6 4.3 0.00 0.01 0.01 44 1013.7
20260502232137 73 293 3.5 6.1 0.00 0.01 0.01 44 1013.7
20260502231116 72 293 4.3 7.0 0.00 0.01 0.01 45 1013.8
20260502230137 72 248 1.7 2.6 0.00 0.01 0.01 47 1014.1
20260502225116 71 270 3.5 7.0 0.00 0.01 0.01 47 1014.3
20260502224117 71 315 2.6 3.5 0.00 0.01 0.01 47 1014.5
20260502223117 71 338 1.7 3.5 0.00 0.01 0.01 47 1014.5
20260502222116 70 248 2.6 3.5 0.00 0.01 0.01 49 1014.6
20260502221117 70 270 5.2 7.0 0.00 0.01 0.01 47 1014.8
20260502220116 70 293 3.5 5.2 0.00 0.01 0.01 48 1014.9
20260502215117 70 293 2.6 6.1 0.00 0.01 0.01 48 1015.0
20260502214116 69 338 3.5 5.2 0.00 0.01 0.01 50 1015.2
20260502213117 69 248 1.7 1.7 0.00 0.01 0.01 48 1015.3
20260502212117 68 225 1.7 3.5 0.00 0.01 0.01 50 1015.4
20260502211116 68 293 6.1 7.0 0.00 0.01 0.01 50 1015.5
20260502210116 67 225 1.7 2.6 0.00 0.01 0.01 51 1015.8
20260502205117 66 0 2.6 4.3 0.00 0.01 0.01 54 1015.8
20260502204116 65 270 3.5 6.1 0.00 0.01 0.01 55 1016.0
20260502203407 64 315 2.6 4.3 0.00 0.01 0.01 56 1016.0
20260502203216 64 293 3.5 5.2 0.00 0.01 0.01 56 1016.0
20260502202216 65 45 0.9 1.7 0.00 0.01 0.01 53 1016.2
20260502201216 65 270 4.3 7.0 0.00 0.01 0.01 53 1016.2